Date String (YYYY-MM-DD hh:mm:ss) UTC,Instrument flags,Ambient pressure (hPa),Sample flow (lpm),Bypass flow (lpm),Sample temperature (°C),Ambient temperature (°C),ASC tube jacket temperature (°C),LED temperature (°C),Box temperature (°C),Sample RH (%),Span deviation,Mass concentration (μg/m³),Mass concentration (μg/m³),Mass concentration (μg/m³)
DateTimeUTC,F1_M11,P_M11,Q1_M11,Q2_M11,T1_M11,T2_M11,T3_M11,T4_M11,T5_M11,U1_M11,ZSPAN_M11,X0_M11,X2_M11,X1_M11
2023-05-11 00:00:00,,0825.1,4.99,0.00,29.8,28.3,00.0,38.2,31.5,27.0,-000.1,0013.94,0008.43,0007.71
2023-05-11 00:01:00,,0825.1,5.01,0.00,29.8,28.3,00.0,38.2,31.5,26.8,-000.0,0013.11,0008.35,0007.64
2023-05-11 00:02:00,,0825.2,4.99,0.00,29.8,28.3,00.0,38.2,31.5,26.6,0000.1,0012.80,0008.27,0007.54
2023-05-11 00:03:00,,0825.3,4.99,0.00,29.8,28.2,00.0,38.2,31.5,26.6,0000.3,0012.84,0008.22,0007.43
2023-05-11 00:04:00,,0825.2,5.00,0.00,29.8,28.2,00.0,38.2,31.4,26.6,0000.9,0013.07,0008.10,0007.32
2023-05-11 00:05:00,,0825.3,5.01,0.00,29.8,28.2,00.0,38.2,31.5,26.6,0001.0,0013.45,0008.00,0007.17
2023-05-11 00:06:00,,0825.3,5.01,0.00,29.8,28.2,00.0,38.2,31.5,26.5,0001.0,0013.21,0007.83,0007.01
2023-05-11 00:07:00,,0825.4,5.00,0.00,29.8,28.2,00.0,38.2,31.4,26.2,0000.9,0012.76,0007.66,0006.83
2023-05-11 00:08:00,,0825.4,4.99,0.00,29.8,28.2,00.0,38.2,31.4,26.2,0001.0,0012.44,0007.49,0006.68
2023-05-11 00:09:00,,0825.4,5.00,0.00,29.8,28.2,00.0,38.2,31.4,25.8,0001.1,0012.25,0007.31,0006.50
2023-05-11 00:10:00,,0825.5,4.99,0.00,29.8,28.2,00.0,38.2,31.5,26.0,0000.9,0011.94,0007.12,0006.33
2023-05-11 00:11:00,,0825.6,5.00,0.00,29.8,28.2,00.0,38.2,31.5,25.8,0000.8,0011.78,0006.97,0006.20
2023-05-11 00:12:00,,0825.6,5.00,0.00,29.8,28.2,00.0,38.2,31.4,25.4,0000.7,0011.80,0006.80,0006.05
2023-05-11 00:13:00,,0825.5,5.00,0.00,29.8,28.2,00.0,38.2,31.4,24.9,0000.6,0012.12,0006.62,0005.88
2023-05-11 00:14:00,,0825.4,5.01,0.00,29.8,28.1,00.0,38.2,31.4,24.3,0000.5,0011.92,0006.44,0005.69
2023-05-11 00:15:00,,0825.3,5.01,0.00,29.8,28.2,00.0,38.2,31.4,23.6,0000.5,0011.22,0006.21,0005.47
2023-05-11 00:16:00,,0825.3,4.98,0.00,29.8,28.2,00.0,38.2,31.4,22.8,0000.6,0010.26,0005.90,0005.23
2023-05-11 00:17:00,,0825.3,5.00,0.00,29.8,28.2,00.0,38.2,31.4,22.8,0000.7,0010.09,0005.72,0005.00
2023-05-11 00:18:00,,0825.4,5.01,0.00,29.8,28.2,00.0,38.2,31.4,22.7,0000.7,0009.89,0005.53,0004.80
2023-05-11 00:19:00,,0825.5,5.01,0.00,29.8,28.2,00.0,38.2,31.4,23.1,0000.3,0009.52,0005.28,0004.59
2023-05-11 00:20:00,,0825.5,4.99,0.00,29.8,28.2,00.0,38.2,31.4,22.9,0000.0,0009.36,0005.11,0004.42
2023-05-11 00:21:00,,0825.6,4.99,0.00,29.8,28.2,00.0,38.2,31.4,22.5,0000.4,0009.20,0004.93,0004.24
2023-05-11 00:22:00,,0825.6,5.01,0.00,29.8,28.2,00.0,38.2,31.4,22.4,0000.3,0008.86,0004.75,0004.06
2023-05-11 00:23:00,,0825.7,5.01,0.00,29.8,28.2,00.0,38.2,31.4,22.6,0000.0,0008.57,0004.62,0003.92
2023-05-11 00:24:00,,0825.7,4.98,0.00,29.8,28.2,00.0,38.2,31.5,22.4,0000.0,0007.86,0004.50,0003.82
2023-05-11 00:25:00,,0825.7,5.00,0.00,29.8,28.2,00.0,38.2,31.4,22.0,0000.0,0007.61,0004.37,0003.75
2023-05-11 00:26:00,,0825.8,5.00,0.00,29.8,28.2,00.0,38.2,31.4,22.3,0000.0,0007.60,0004.32,0003.69
2023-05-11 00:27:00,,0825.8,5.00,0.00,29.8,28.2,00.0,38.2,31.4,22.5,0000.0,0007.81,0004.35,0003.67
2023-05-11 00:28:00,,0825.9,4.99,0.00,29.8,28.3,00.0,38.2,31.4,22.5,0000.0,0007.73,0004.29,0003.65
2023-05-11 00:29:00,,0825.9,5.00,0.00,29.8,28.3,00.0,38.2,31.4,22.4,0000.0,0007.65,0004.23,0003.63
2023-05-11 00:30:00,,0825.9,5.01,0.00,29.8,28.3,00.0,38.2,31.4,22.1,0000.0,0007.66,0004.21,0003.61
2023-05-11 00:31:00,,0826.0,5.01,0.00,29.8,28.3,00.0,38.2,31.5,21.7,0000.0,0007.98,0004.20,0003.58
2023-05-11 00:32:00,,0826.2,5.00,0.00,29.8,28.3,00.0,38.2,31.5,21.4,0000.0,0008.01,0004.22,0003.57
2023-05-11 00:33:00,,0826.2,5.00,0.00,29.9,28.3,00.0,38.3,31.5,21.5,0000.0,0008.11,0004.24,0003.56
2023-05-11 00:34:00,,0826.3,5.01,0.00,29.9,28.3,00.0,38.3,31.5,21.3,0000.0,0008.10,0004.22,0003.54
2023-05-11 00:35:00,,0826.3,5.00,0.00,29.9,28.4,00.0,38.3,31.5,21.0,0000.0,0008.11,0004.19,0003.52
2023-05-11 00:36:00,,0826.3,4.98,0.00,29.9,28.4,00.0,38.3,31.5,21.4,0000.0,0008.04,0004.16,0003.49
2023-05-11 00:37:00,,0826.2,5.00,0.00,29.9,28.4,00.0,38.3,31.5,22.7,0000.0,0007.98,0004.14,0003.50
2023-05-11 00:38:00,,0826.2,5.01,0.00,29.9,28.4,00.0,38.3,31.5,24.4,0000.0,0007.86,0004.17,0003.54
2023-05-11 00:39:00,,0826.2,5.00,0.00,29.9,28.4,00.0,38.3,31.5,24.6,0000.0,0008.04,0004.25,0003.60
2023-05-11 00:40:00,,0826.2,5.01,0.00,29.9,28.3,00.0,38.3,31.5,24.9,0000.0,0008.15,0004.39,0003.71
2023-05-11 00:41:00,,0826.2,5.00,0.00,29.9,28.3,00.0,38.3,31.5,24.9,0000.0,0008.40,0004.58,0003.86
2023-05-11 00:42:00,,0826.2,5.00,0.00,29.9,28.3,00.0,38.3,31.5,23.7,0000.0,0008.07,0004.64,0003.94
2023-05-11 00:43:00,,0826.2,5.00,0.00,29.9,28.3,00.0,38.3,31.5,23.7,0000.0,0008.20,0004.70,0004.01
2023-05-11 00:44:00,,0826.2,4.99,0.00,29.9,28.3,00.0,38.3,31.5,23.9,0000.0,0008.26,0004.78,0004.10
2023-05-11 00:45:00,,0826.3,5.00,0.00,29.9,28.3,00.0,38.3,31.5,23.9,0000.0,0008.47,0004.92,0004.20
2023-05-11 00:46:00,,0826.4,5.01,0.00,29.9,28.3,00.0,38.3,31.5,24.4,0001.0,0008.63,0005.07,0004.36
2023-05-11 00:47:00,,0826.4,5.00,0.00,29.9,28.3,00.0,38.3,31.5,25.4,0001.4,0008.88,0005.32,0004.59
2023-05-11 00:48:00,,0826.4,5.01,0.00,29.9,28.3,00.0,38.3,31.5,26.3,0002.0,0009.67,0005.63,0004.88
2023-05-11 00:49:00,,0826.6,4.99,0.00,29.9,28.2,00.0,38.3,31.4,26.8,0002.2,0010.17,0005.96,0005.18
2023-05-11 00:50:00,,0826.6,4.99,0.00,29.9,28.1,00.0,38.3,31.4,27.2,0002.1,0010.39,0006.23,0005.47
2023-05-11 00:51:00,,0826.6,5.01,0.00,29.8,28.1,00.0,38.3,31.4,27.7,0001.7,0010.84,0006.49,0005.77
2023-05-11 00:52:00,,0826.7,5.00,0.00,29.8,28.0,00.0,38.3,31.3,28.0,0001.6,0011.88,0006.77,0006.04
2023-05-11 00:53:00,,0826.8,4.98,0.00,29.8,27.9,00.0,38.3,31.3,28.2,0001.6,0012.46,0007.16,0006.39
2023-05-11 00:54:00,,0826.8,5.01,0.00,29.7,27.9,00.0,38.3,31.2,28.4,0001.4,0013.03,0007.62,0006.84
2023-05-11 00:55:00,,0826.8,5.01,0.00,29.7,27.8,00.0,38.3,31.2,28.5,0001.1,0014.16,0008.13,0007.27
2023-05-11 00:56:00,,0826.8,5.00,0.00,29.7,27.8,00.0,38.3,31.2,28.6,0000.9,0015.70,0008.61,0007.68
2023-05-11 00:57:00,,0826.8,4.99,0.00,29.6,27.7,00.0,38.2,31.1,28.7,0000.8,0016.31,0008.98,0008.03
2023-05-11 00:58:00,,0826.8,4.99,0.00,29.6,27.7,00.0,38.2,31.1,28.9,0000.7,0017.21,0009.37,0008.35
2023-05-11 00:59:00,,0826.8,5.00,0.00,29.6,27.6,00.0,38.2,31.1,29.0,0000.5,0017.85,0009.70,0008.64
